Time,TemperatureF,DewpointF,PressureIn,WindDirection,WindDirectionDegrees,WindSpeedMPH,WindSpeedGustMPH,Humidity,HourlyPrecipIn,Conditions,Clouds,dailyrainin,SoftwareType,DateUTC
2013-03-26 00:11:00,57.2,45.0,30.02,WNW,301,3.0,8.0,64,0.00,,,0.00,weatherlink.com 1.10,2013-03-26 04:11:00,
2013-03-26 00:27:00,57.1,45.0,30.03,NNW,336,1.0,7.0,64,0.00,,,0.00,weatherlink.com 1.10,2013-03-26 04:27:00,
2013-03-26 00:42:00,56.9,45.0,30.03,North,349,4.0,5.0,65,0.00,,,0.00,weatherlink.com 1.10,2013-03-26 04:42:00,
2013-03-26 00:57:00,56.8,46.0,30.03,NNW,343,3.0,4.0,67,0.00,,,0.00,weatherlink.com 1.10,2013-03-26 04:57:00,
2013-03-26 01:12:00,56.6,46.0,30.03,NW,308,2.0,5.0,68,0.00,,,0.00,weatherlink.com 1.10,2013-03-26 05:12:00,
2013-03-26 01:42:00,56.3,46.0,30.03,North,355,1.0,3.0,69,0.00,,,0.00,weatherlink.com 1.10,2013-03-26 05:42:00,
2013-03-26 01:57:00,56.0,46.0,30.03,NNW,342,1.0,4.0,69,0.00,,,0.00,weatherlink.com 1.10,2013-03-26 05:57:00,
2013-03-26 02:12:00,56.1,46.0,30.03,NW,310,4.0,7.0,68,0.00,,,0.00,weatherlink.com 1.10,2013-03-26 06:12:00,
2013-03-26 02:27:00,56.5,46.0,30.04,WNW,303,3.0,9.0,68,0.00,,,0.00,weatherlink.com 1.10,2013-03-26 06:27:00,
2013-03-26 02:42:00,56.6,46.0,30.02,WNW,298,5.0,8.0,68,0.00,,,0.00,weatherlink.com 1.10,2013-03-26 06:42:00,
2013-03-26 02:57:00,56.6,46.0,30.03,NW,313,3.0,8.0,69,0.00,,,0.00,weatherlink.com 1.10,2013-03-26 06:57:00,
2013-03-26 03:12:00,56.5,47.0,30.03,NNW,338,5.0,8.0,70,0.00,,,0.00,weatherlink.com 1.10,2013-03-26 07:12:00,
2013-03-26 03:27:00,56.4,47.0,30.03,NNE,26,2.0,5.0,71,0.00,,,0.00,weatherlink.com 1.10,2013-03-26 07:27:00,
2013-03-26 03:42:00,56.2,47.0,30.03,NNW,339,1.0,7.0,72,0.00,,,0.00,weatherlink.com 1.10,2013-03-26 07:42:00,
2013-03-26 03:57:00,56.0,47.0,30.03,NNW,338,2.0,6.0,71,0.00,,,0.00,weatherlink.com 1.10,2013-03-26 07:57:00,
2013-03-26 04:12:00,55.9,47.0,30.03,NNW,337,2.0,5.0,71,0.00,,,0.00,weatherlink.com 1.10,2013-03-26 08:12:00,
2013-03-26 04:57:00,55.4,46.0,30.03,NNW,335,0.0,6.0,72,0.00,,,0.00,weatherlink.com 1.10,2013-03-26 08:57:00,
2013-03-26 05:12:00,55.4,47.0,30.04,NNW,345,2.0,5.0,73,0.00,,,0.00,weatherlink.com 1.10,2013-03-26 09:12:00,
2013-03-26 05:42:00,54.8,47.0,30.04,NNW,328,2.0,3.0,74,0.00,,,0.00,weatherlink.com 1.10,2013-03-26 09:42:00,
2013-03-26 05:57:00,54.6,47.0,30.04,NNW,337,1.0,3.0,75,0.00,,,0.00,weatherlink.com 1.10,2013-03-26 09:57:00,
2013-03-26 06:12:00,54.4,47.0,30.05,NNW,338,2.0,3.0,76,0.00,,,0.00,weatherlink.com 1.10,2013-03-26 10:12:00,
2013-03-26 06:27:00,54.5,46.0,30.06,North,5,1.0,8.0,74,0.00,,,0.00,weatherlink.com 1.10,2013-03-26 10:27:00,
2013-03-26 06:42:00,54.4,42.0,30.07,NE,38,5.0,11.0,63,0.00,,,0.00,weatherlink.com 1.10,2013-03-26 10:42:00,
2013-03-26 06:57:00,54.1,41.0,30.07,NE,48,2.0,10.0,61,0.00,,,0.00,weatherlink.com 1.10,2013-03-26 10:57:00,
2013-03-26 07:12:00,53.8,40.0,30.07,North,5,2.0,10.0,61,0.00,,,0.00,weatherlink.com 1.10,2013-03-26 11:12:00,
2013-03-26 07:27:00,53.3,40.0,30.08,NE,45,4.0,9.0,61,0.00,,,0.00,weatherlink.com 1.10,2013-03-26 11:27:00,
2013-03-26 07:42:00,53.0,41.0,30.09,NE,43,4.0,8.0,64,0.00,,,0.00,weatherlink.com 1.10,2013-03-26 11:42:00,
2013-03-26 07:57:00,52.9,41.0,30.09,ENE,61,1.0,9.0,64,0.00,,,0.00,weatherlink.com 1.10,2013-03-26 11:57:00,
2013-03-26 08:12:00,53.2,39.0,30.10,North,5,8.0,11.0,59,0.00,,,0.00,weatherlink.com 1.10,2013-03-26 12:12:00,
2013-03-26 08:27:00,53.7,38.0,30.11,NE,48,5.0,11.0,55,0.00,,,0.00,weatherlink.com 1.10,2013-03-26 12:27:00,
2013-03-26 08:42:00,53.7,37.0,30.12,ENE,58,5.0,11.0,54,0.00,,,0.00,weatherlink.com 1.10,2013-03-26 12:42:00,
2013-03-26 08:58:00,53.8,36.0,30.13,NNE,18,8.0,15.0,52,0.00,,,0.00,weatherlink.com 1.10,2013-03-26 12:58:00,
2013-03-26 09:13:00,54.2,36.0,30.13,NNE,28,5.0,15.0,51,0.00,,,0.00,weatherlink.com 1.10,2013-03-26 13:13:00,
2013-03-26 09:28:00,54.6,37.0,30.14,NNE,23,1.0,11.0,51,0.00,,,0.00,weatherlink.com 1.10,2013-03-26 13:28:00,
2013-03-26 09:43:00,55.3,39.0,30.15,ENE,71,7.0,10.0,55,0.00,,,0.00,weatherlink.com 1.10,2013-03-26 13:43:00,
2013-03-26 09:58:00,55.4,38.0,30.14,North,355,5.0,11.0,52,0.00,,,0.00,weatherlink.com 1.10,2013-03-26 13:58:00,
2013-03-26 10:13:00,55.6,37.0,30.14,NE,42,10.0,14.0,49,0.00,,,0.00,weatherlink.com 1.10,2013-03-26 14:13:00,
2013-03-26 10:28:00,55.5,35.0,30.15,NNE,24,3.0,15.0,47,0.00,,,0.00,weatherlink.com 1.10,2013-03-26 14:28:00,
2013-03-26 10:43:00,54.9,36.0,30.15,NNE,16,3.0,13.0,49,0.00,,,0.00,weatherlink.com 1.10,2013-03-26 14:43:00,
2013-03-26 10:58:00,55.6,37.0,30.15,NE,36,10.0,14.0,50,0.00,,,0.00,weatherlink.com 1.10,2013-03-26 14:58:00,
2013-03-26 11:13:00,55.7,39.0,30.16,NNE,30,5.0,13.0,53,0.00,,,0.00,weatherlink.com 1.10,2013-03-26 15:13:00,
2013-03-26 11:28:00,55.8,37.0,30.16,NW,307,10.0,12.0,50,0.00,,,0.00,weatherlink.com 1.10,2013-03-26 15:28:00,
2013-03-26 11:43:00,56.0,38.0,30.16,North,355,5.0,15.0,52,0.00,,,0.00,weatherlink.com 1.10,2013-03-26 15:43:00,
2013-03-26 11:58:00,56.9,39.0,30.15,North,355,8.0,14.0,52,0.00,,,0.00,weatherlink.com 1.10,2013-03-26 15:58:00,
2013-03-26 12:13:00,57.7,38.0,30.15,NNE,33,8.0,13.0,49,0.00,,,0.00,weatherlink.com 1.10,2013-03-26 16:13:00,
2013-03-26 12:28:00,57.8,39.0,30.15,NNW,331,3.0,15.0,50,0.00,,,0.00,weatherlink.com 1.10,2013-03-26 16:28:00,
2013-03-26 12:43:00,58.8,40.0,30.15,North,5,5.0,10.0,50,0.00,,,0.00,weatherlink.com 1.10,2013-03-26 16:43:00,
2013-03-26 12:58:00,59.5,40.0,30.15,NW,311,17.0,17.0,49,0.00,,,0.00,weatherlink.com 1.10,2013-03-26 16:58:00,
2013-03-26 13:13:00,59.0,38.0,30.14,WNW,290,13.0,15.0,45,0.00,,,0.00,weatherlink.com 1.10,2013-03-26 17:13:00,
2013-03-26 13:28:00,59.8,40.0,30.14,NNW,328,8.0,13.0,48,0.00,,,0.00,weatherlink.com 1.10,2013-03-26 17:28:00,
2013-03-26 13:43:00,59.9,39.0,30.14,NNW,329,10.0,15.0,47,0.00,,,0.00,weatherlink.com 1.10,2013-03-26 17:43:00,
2013-03-26 13:58:00,60.4,41.0,30.14,North,5,8.0,15.0,49,0.00,,,0.00,weatherlink.com 1.10,2013-03-26 17:58:00,
2013-03-26 14:28:00,60.9,42.0,30.12,NW,306,6.0,17.0,51,0.00,,,0.00,weatherlink.com 1.10,2013-03-26 18:28:00,
2013-03-26 14:43:00,61.6,44.0,30.12,NNW,329,6.0,18.0,53,0.00,,,0.00,weatherlink.com 1.10,2013-03-26 18:43:00,
2013-03-26 14:58:00,61.8,42.0,30.12,NE,40,17.0,22.0,49,0.00,,,0.00,weatherlink.com 1.10,2013-03-26 18:58:00,
2013-03-26 15:13:00,61.6,43.0,30.11,WNW,295,14.0,19.0,50,0.00,,,0.00,weatherlink.com 1.10,2013-03-26 19:13:00,
2013-03-26 15:28:00,61.4,40.0,30.12,NNW,340,16.0,22.0,46,0.00,,,0.00,weatherlink.com 1.10,2013-03-26 19:28:00,
2013-03-26 15:43:00,60.8,40.0,30.12,NNW,334,12.0,21.0,46,0.00,,,0.00,weatherlink.com 1.10,2013-03-26 19:43:00,
2013-03-26 15:58:00,60.9,39.0,30.12,WNW,291,13.0,20.0,44,0.00,,,0.00,weatherlink.com 1.10,2013-03-26 19:58:00,
2013-03-26 16:13:00,60.2,38.0,30.12,West,265,11.0,19.0,44,0.00,,,0.00,weatherlink.com 1.10,2013-03-26 20:13:00,
2013-03-26 16:28:00,60.9,39.0,30.12,WNW,302,8.0,18.0,45,0.00,,,0.00,weatherlink.com 1.10,2013-03-26 20:28:00,
2013-03-26 16:43:00,60.0,39.0,30.12,West,267,13.0,19.0,47,0.00,,,0.00,weatherlink.com 1.10,2013-03-26 20:43:00,
2013-03-26 16:58:00,59.6,40.0,30.12,NNE,19,7.0,19.0,49,0.00,,,0.00,weatherlink.com 1.10,2013-03-26 20:58:00,
2013-03-26 17:13:00,59.5,40.0,30.12,West,277,12.0,20.0,49,0.00,,,0.00,weatherlink.com 1.10,2013-03-26 21:13:00,
2013-03-26 17:28:00,59.2,39.0,30.12,WSW,254,12.0,23.0,47,0.00,,,0.00,weatherlink.com 1.10,2013-03-26 21:28:00,
2013-03-26 17:43:00,58.6,39.0,30.13,West,276,17.0,22.0,49,0.00,,,0.00,weatherlink.com 1.10,2013-03-26 21:43:00,
2013-03-26 17:58:00,58.4,36.0,30.13,North,9,10.0,18.0,43,0.00,,,0.00,weatherlink.com 1.10,2013-03-26 21:58:00,
2013-03-26 18:13:00,57.8,36.0,30.14,North,355,10.0,20.0,44,0.00,,,0.00,weatherlink.com 1.10,2013-03-26 22:13:00,
2013-03-26 18:28:00,57.6,38.0,30.14,NW,326,5.0,17.0,48,0.00,,,0.00,weatherlink.com 1.10,2013-03-26 22:28:00,
2013-03-26 18:43:00,56.9,37.0,30.14,NNW,329,9.0,19.0,47,0.00,,,0.00,weatherlink.com 1.10,2013-03-26 22:43:00,
2013-03-26 18:58:00,56.5,38.0,30.15,West,278,12.0,19.0,50,0.00,,,0.00,weatherlink.com 1.10,2013-03-26 22:58:00,
2013-03-26 19:13:00,55.8,38.0,30.15,NNW,329,9.0,19.0,52,0.00,,,0.00,weatherlink.com 1.10,2013-03-26 23:13:00,
2013-03-26 19:28:00,54.9,39.0,30.16,NW,317,11.0,15.0,56,0.00,,,0.00,weatherlink.com 1.10,2013-03-26 23:28:00,
2013-03-26 19:43:00,54.3,40.0,30.16,West,263,9.0,14.0,58,0.00,,,0.00,weatherlink.com 1.10,2013-03-26 23:43:00,
2013-03-26 19:58:00,54.1,41.0,30.16,NW,311,7.0,15.0,61,0.00,,,0.00,weatherlink.com 1.10,2013-03-26 23:58:00,
2013-03-26 20:13:00,53.7,39.0,30.17,NNW,331,9.0,16.0,59,0.00,,,0.00,weatherlink.com 1.10,2013-03-27 00:13:00,
2013-03-26 20:28:00,53.4,40.0,30.18,NW,308,4.0,12.0,60,0.00,,,0.00,weatherlink.com 1.10,2013-03-27 00:28:00,
2013-03-26 20:43:00,53.1,39.0,30.18,WNW,294,6.0,12.0,60,0.00,,,0.00,weatherlink.com 1.10,2013-03-27 00:43:00,
2013-03-26 20:58:00,52.6,39.0,30.19,NW,312,2.0,11.0,60,0.00,,,0.00,weatherlink.com 1.10,2013-03-27 00:58:00,
2013-03-26 21:13:00,52.3,39.0,30.19,NW,318,4.0,7.0,62,0.00,,,0.00,weatherlink.com 1.10,2013-03-27 01:13:00,
2013-03-26 21:28:00,52.0,39.0,30.20,NNE,22,2.0,8.0,62,0.00,,,0.00,weatherlink.com 1.10,2013-03-27 01:28:00,
2013-03-26 21:44:00,51.6,39.0,30.20,WNW,303,3.0,7.0,62,0.00,,,0.00,weatherlink.com 1.10,2013-03-27 01:44:00,
2013-03-26 21:59:00,51.3,39.0,30.20,NNW,347,6.0,7.0,64,0.00,,,0.00,weatherlink.com 1.10,2013-03-27 01:59:00,
2013-03-26 22:14:00,51.1,39.0,30.21,NW,316,8.0,8.0,64,0.00,,,0.00,weatherlink.com 1.10,2013-03-27 02:14:00,
2013-03-26 22:29:00,50.9,39.0,30.21,NW,317,3.0,8.0,63,0.00,,,0.00,weatherlink.com 1.10,2013-03-27 02:29:00,
2013-03-26 22:44:00,50.8,39.0,30.22,NW,325,3.0,6.0,64,0.00,,,0.00,weatherlink.com 1.10,2013-03-27 02:44:00,
2013-03-26 22:59:00,50.5,39.0,30.22,NNW,334,0.0,5.0,65,0.00,,,0.00,weatherlink.com 1.10,2013-03-27 02:59:00,
2013-03-26 23:14:00,50.3,39.0,30.22,NNE,16,1.0,6.0,66,0.00,,,0.00,weatherlink.com 1.10,2013-03-27 03:14:00,
2013-03-26 23:29:00,50.1,39.0,30.23,North,350,3.0,6.0,67,0.00,,,0.00,weatherlink.com 1.10,2013-03-27 03:29:00,
2013-03-26 23:44:00,50.1,39.0,30.23,North,355,3.0,6.0,67,0.00,,,0.00,weatherlink.com 1.10,2013-03-27 03:44:00,
2013-03-26 23:59:00,50.0,39.0,30.22,NNW,336,3.0,6.0,67,0.00,,,0.00,weatherlink.com 1.10,2013-03-27 03:59:00,